[[{"header":{"parameterUnit":"m.s-1","parameterCategory":1,"la1":30.2991,"la2":30.254,"lo1":-89.0895,"lo2":-89.0444,"dy":0.0017,"dx":0.0017,"nx":28,"ny":28,"refTime":"2025-06-17T03:00:00:Z","depth":0,"parameterNumber":2,"parameterNumberName":"U-component_of_WINDS"},"data":[0,0,0,0,0,0,0,0,0,0,0,0,0,0,0,0,0,0,0,0,0,0,0,0,0,0,0,0,0,0,0,0,0,0,0,0,0,0,0,0,0,0,0,0,0,0,0,0,0,0,0,0,0,0,0,0,0,0,-1.0077,-1.0076,0,-1.0001,-1.0,-1.0,-0.9948,-0.9948,-0.9948,-0.9947,-0.9865,-0.9863,-0.9861,0,0,0,0,0,0,0,0,0,0,0,0,0,-1.0171,-1.017,-1.0077,-1.0076,-1.0075,-1.0001,-1.0,-0.9999,-0.9948,-0.9948,-0.9947,-0.9947,-0.9865,-0.9863,-0.9861,0,0,0,0,0,0,0,0,0,0,0,0,0,-1.0117,-1.0169,-1.0077,-1.0041,-1.0037,-1.0002,-1.0,-0.9999,-0.9948,-0.9948,-0.9947,-0.9947,-0.9866,-0.9863,-0.986,-0.9854,0,0,-0.9852,-0.9851,0,0,0,0,0,0,0,0,-1.012,-1.0113,-1.0047,-1.0043,-1.0039,-0.9984,-1.0003,-0.995,-0.9949,-0.9982,-0.9947,-0.9947,-0.9904,-0.9898,-0.9885,-0.985,-0.9846,-0.9852,-0.985,-0.9849,-0.9848,0,0,0,0,0,0,0,-1.0124,-1.0116,-1.0047,-1.0046,-1.0041,-1.0027,-1.0018,-0.9993,-0.9947,-0.9979,-0.9975,-0.9967,-0.9902,-0.9888,-0.9883,-0.9845,-0.9852,-0.9849,-0.9848,-0.9846,-0.98,-0.9801,0,0,0,0,0,0,-1.0134,-1.012,-1.0049,-1.0044,-1.0079,-1.0025,-1.0016,-1.0002,-0.9947,-0.9938,-0.9968,-0.9965,-0.9893,-0.9886,-0.988,-0.9868,-0.9849,-0.9846,-0.9845,-0.98,-0.9801,-0.9801,0,0,0,0,0,0,-1.0136,-1.0128,-1.0052,-1.0081,-1.007,-1.0024,-1.0009,-1.0001,-0.9987,-0.9939,-0.9929,-0.9962,-0.9892,-0.9884,-0.9861,-0.9864,-0.9845,-0.9842,-0.9799,-0.98,-0.9801,-0.9845,0,0,0,0,0,0,-1.0139,-1.0129,-1.0127,-1.0081,-1.0069,-1.0036,-1.0009,-0.9999,-0.9983,-0.9978,-0.9931,-0.9923,-0.9891,-0.9866,-0.9858,-0.986,-0.984,-0.9799,-0.98,-0.9801,-0.9843,-0.9847,-0.9851,0,0,0,0,0,-1.0143,-1.0141,-1.0127,-1.0119,-1.0066,-1.0036,-1.0029,-0.9995,-0.9983,-0.998,-0.9949,-0.9924,-0.9866,-0.9864,-0.9855,-0.9856,-0.9798,-0.98,-0.9801,-0.9841,-0.9846,-0.985,0,0,0,0,0,0,-1.0187,-1.0135,-1.0118,-1.0103,-1.0075,-1.0028,-1.0023,-1.0001,-0.9974,-0.9971,-0.9928,-0.9917,-0.9899,-0.9875,-0.9874,-0.9847,-0.9829,-0.9828,-0.9863,-0.9867,-0.9871,-0.9876,-0.9838,0,0,0,0,0,-1.0195,-1.0177,-1.0132,-1.0123,-1.011,-1.0069,-1.0055,-1.0031,-0.9999,-0.9986,-0.9954,-0.9923,-0.9897,-0.9881,-0.9855,-0.984,-0.9828,-0.9836,-0.984,-0.9844,-0.9843,-0.9833,-0.9835,-0.9804,-0.9804,-0.9804,0,0,-1.0211,-1.0181,-1.0172,-1.0131,-1.0106,-1.0087,-1.0059,-1.004,-1.0025,-0.9983,-0.996,-0.9935,-0.9897,-0.9878,-0.9868,-0.9858,-0.9849,-0.9845,-0.9848,-0.9845,-0.9834,-0.9837,-0.984,-0.9805,-0.9805,-0.9805,0,0,-1.0231,-1.0207,-1.0196,-1.0172,-1.0136,-1.0109,-1.0107,-1.0064,-1.0046,-1.0023,-0.9991,-0.9972,-0.9929,-0.9903,-0.9885,-0.9896,-0.9872,-0.9889,-0.9908,-0.9899,-0.9901,-0.9903,-0.9906,-0.9908,-0.9889,-0.9889,-0.9889,0,-1.0255,-1.0227,-1.0193,-1.0176,-1.0158,-1.0122,-1.011,-1.0088,-1.0045,-1.0033,-1.0022,-0.9968,-0.994,-0.9915,-0.9918,-0.9904,-0.9899,-0.9893,-0.9904,-0.9905,-0.9907,-0.9909,-0.991,-0.9891,-0.9891,-0.9891,-0.989,0,-1.0257,-1.0238,-1.0234,-1.0195,-1.0177,-1.0163,-1.0125,-1.0111,-1.0089,-1.0063,-1.004,-1.0005,-0.9971,-0.9964,-0.9941,-0.9935,-0.993,-0.9912,-0.9893,-0.9912,-0.9914,-0.9915,-0.9894,-0.9894,-0.9893,-0.9892,0,0,-1.0301,-1.0245,-1.0244,-1.0226,-1.0184,-1.0168,-1.0151,-1.0121,-1.0109,-1.008,-1.0064,-1.003,-1.0014,-0.9993,-0.9967,-0.9959,-0.997,-0.9942,-0.9941,-0.9948,-0.9959,-0.9972,-0.9973,-0.9954,-0.9954,-0.9954,-0.9962,0,-1.0313,-1.0284,-1.0254,-1.0235,-1.0216,-1.0182,-1.0167,-1.0139,-1.0115,-1.0094,-1.0066,-1.0042,-1.0024,-1.0011,-1.0001,-0.997,-0.9971,-0.997,-0.9937,-0.9936,-0.9946,-0.9974,-0.9987,-0.9996,-0.9962,-0.9963,-0.9963,0,-1.0324,-1.0299,-1.0279,-1.0239,-1.023,-1.0218,-1.0187,-1.0169,-1.0136,-1.0118,-1.0096,-1.0069,-1.0049,-1.0034,-1.0005,-1.0004,-0.9989,-0.9972,-0.9972,-0.9966,-0.995,-0.9968,-0.9999,-1.0,-0.9963,-0.9963,-0.9963,0,-1.0357,-1.0318,-1.0301,-1.0287,-1.024,-1.0232,-1.0212,-1.0179,-1.0163,-1.0135,-1.0124,-1.0094,-1.0077,-1.0054,-1.0019,-1.0012,-0.9994,-0.9975,-0.9977,-0.9978,-0.9973,-0.9974,-1.0001,-0.9966,-0.9966,-0.9966,-0.9966,0,-1.0373,-1.0361,-1.0315,-1.0304,-1.029,-1.0255,-1.0241,-1.0218,-1.0189,-1.0172,-1.014,-1.0125,-1.0081,-1.006,-1.0033,-1.0012,-1.0005,-0.9989,-0.9981,-0.9991,-0.9993,-0.9979,-0.9977,-0.9966,-0.9966,-0.9966,-0.9966,0,-1.0406,-1.0375,-1.0354,-1.0313,-1.0302,-1.0293,-1.0257,-1.0244,-1.0219,-1.0198,-1.019,-1.015,-1.0123,-1.0087,-1.0049,-1.003,-1.0013,-1.0002,-1.0025,-1.002,-1.0023,-1.0023,-1.0041,-1.0041,-1.0008,-1.0009,-1.0009,0,-1.0418,-1.0409,-1.0367,-1.0355,-1.0336,-1.0316,-1.0299,-1.0264,-1.0248,-1.0211,-1.0202,-1.0174,-1.0149,-1.0108,-1.0074,-1.0044,-1.0031,-1.004,-1.0026,-1.0036,-1.003,-1.0031,-1.0029,-1.0043,-1.0043,-1.0044,-1.0044,0,-1.0442,-1.0428,-1.0406,-1.0379,-1.0361,-1.0338,-1.0313,-1.0304,-1.0263,-1.0246,-1.022,-1.0201,-1.0163,-1.0134,-1.0101,-1.0078,-1.0053,-1.0049,-1.0047,-1.0056,-1.0069,-1.0061,-1.0032,-1.0048,-1.0048,-1.0047,-1.0047,-1.0047,-1.0464,-1.0455,-1.0424,-1.0401,-1.0379,-1.0357,-1.0343,-1.0317,-1.0295,-1.0262,-1.0243,-1.0217,-1.0184,-1.0136,-1.0115,-1.0093,-1.0083,-1.0081,-1.0081,-1.008,-1.0083,-1.0074,-1.0087,-1.0087,-1.0086,-1.0086,-1.0086,0,-1.0486,-1.0465,-1.0444,-1.0411,-1.0393,-1.0375,-1.0346,-1.0332,-1.031,-1.0282,-1.0259,-1.0229,-1.0201,-1.0166,-1.0135,-1.0124,-1.0113,-1.0117,-1.0117,-1.0112,-1.0094,-1.0098,-1.0128,-1.0128,-1.0128,-1.0128,-1.0128,-1.0128,-1.0495,-1.0477,-1.0459,-1.043,-1.0408,-1.0384,-1.037,-1.0348,-1.0326,-1.0294,-1.0272,-1.025,-1.0218,-1.0186,-1.0159,-1.0149,-1.0139,-1.0147,-1.0134,-1.0117,-1.0113,-1.011,-1.0113,-1.0145,-1.0145,-1.0153,-1.0153,-1.0153]},{"header":{"parameterUnit":"m.s-1","parameterCategory":1,"la1":30.2991,"la2":30.254,"lo1":-89.0895,"lo2":-89.0444,"dy":0.0017,"dx":0.0017,"nx":28,"ny":28,"refTime":"2025-06-17T03:00:00:Z","depth":0,"parameterNumber":3,"parameterNumberName":"V-component_of_WINDS"},"data":[0,0,0,0,0,0,0,0,0,0,0,0,0,0,0,0,0,0,0,0,0,0,0,0,0,0,0,0,0,0,0,0,0,0,0,0,0,0,0,0,0,0,0,0,0,0,0,0,0,0,0,0,0,0,0,0,0,0,4.9453,4.9452,0,4.9357,4.9355,4.9354,4.9307,4.9307,4.9307,4.9307,4.9198,4.9196,4.9193,0,0,0,0,0,0,0,0,0,0,0,0,0,4.959,4.9588,4.9454,4.9452,4.9451,4.9357,4.9355,4.9354,4.9307,4.9307,4.9307,4.9307,4.9199,4.9196,4.9193,0,0,0,0,0,0,0,0,0,0,0,0,0,4.9516,4.9587,4.9454,4.9416,4.9412,4.9357,4.9355,4.9354,4.9307,4.9307,4.9307,4.9307,4.9201,4.9196,4.9192,4.9164,0,0,4.9179,4.9177,0,0,0,0,0,0,0,0,4.952,4.9511,4.9423,4.9419,4.9414,4.9344,4.9364,4.929,4.9307,4.9346,4.9307,4.9307,4.9246,4.9238,4.922,4.9159,4.9155,4.9178,4.9176,4.9174,4.9173,0,0,0,0,0,0,0,4.9525,4.9514,4.9415,4.9422,4.9416,4.9402,4.9391,4.935,4.9297,4.9343,4.9339,4.9329,4.9244,4.9224,4.9217,4.9153,4.9178,4.9175,4.9172,4.917,4.9066,4.9066,0,0,0,0,0,0,4.9537,4.9519,4.9418,4.9412,4.9468,4.9399,4.9388,4.9366,4.9297,4.9287,4.9329,4.9327,4.9231,4.9222,4.9213,4.9177,4.9174,4.917,4.9167,4.9066,4.9066,4.9066,0,0,0,0,0,0,4.9541,4.9529,4.9422,4.9465,4.945,4.9397,4.9373,4.9364,4.9344,4.9287,4.9276,4.9319,4.9231,4.9219,4.9178,4.9172,4.9168,4.9164,4.9067,4.9066,4.9066,4.9104,0,0,0,0,0,0,4.9545,4.953,4.9521,4.9465,4.9448,4.9391,4.9373,4.9362,4.9338,4.9335,4.9275,4.9265,4.923,4.9184,4.9173,4.9166,4.916,4.9067,4.9066,4.9066,4.9103,4.9105,4.9107,0,0,0,0,0,4.955,4.9533,4.9521,4.9509,4.9435,4.9391,4.938,4.9344,4.9338,4.9327,4.929,4.9267,4.9175,4.9181,4.9168,4.9159,4.9067,4.9067,4.9066,4.9102,4.9105,4.9107,0,0,0,0,0,0,4.9586,4.9525,4.951,4.9476,4.9439,4.9383,4.9368,4.9347,4.9309,4.9307,4.926,4.9247,4.921,4.918,4.9188,4.9129,4.9118,4.9116,4.915,4.9152,4.9154,4.9162,4.9157,0,0,0,0,0,4.9591,4.9562,4.9509,4.9483,4.9466,4.9421,4.9399,4.9375,4.9333,4.9317,4.9277,4.9236,4.9198,4.9173,4.9135,4.9099,4.9085,4.9086,4.9089,4.909,4.9088,4.9068,4.9068,4.9065,4.9065,4.9065,0,0,4.9598,4.9562,4.9546,4.949,4.9458,4.9428,4.9407,4.9375,4.9352,4.9311,4.9271,4.924,4.9191,4.9153,4.9134,4.9127,4.9086,4.909,4.9092,4.9089,4.9068,4.9068,4.9068,4.9065,4.9065,4.9065,0,0,4.9597,4.9567,4.9543,4.9513,4.9468,4.9438,4.9432,4.9379,4.9359,4.9318,4.9288,4.9257,4.9193,4.916,4.9134,4.9124,4.91,4.9112,4.9122,4.9103,4.9103,4.9103,4.91,4.9099,4.911,4.911,4.911,0,4.9612,4.9568,4.9532,4.9503,4.948,4.9445,4.942,4.9391,4.9334,4.9318,4.9311,4.9231,4.9195,4.915,4.9148,4.9128,4.9119,4.9118,4.9107,4.9106,4.9106,4.9102,4.9101,4.9112,4.9112,4.9112,4.9111,0,4.9588,4.9558,4.9543,4.9494,4.9468,4.9441,4.94,4.9378,4.9356,4.9326,4.9285,4.9242,4.9195,4.9182,4.9158,4.9133,4.9131,4.9116,4.9104,4.9108,4.9104,4.9102,4.9115,4.9114,4.9113,4.9113,0,0,4.9605,4.9539,4.9534,4.9512,4.946,4.9435,4.9406,4.9364,4.9346,4.9308,4.9282,4.9229,4.9216,4.9188,4.916,4.9143,4.9139,4.9131,4.9129,4.9134,4.9109,4.912,4.9119,4.9124,4.9123,4.9123,4.9113,0,4.9597,4.9547,4.9516,4.9477,4.9449,4.9417,4.9391,4.9356,4.9328,4.9297,4.9265,4.9229,4.9215,4.9197,4.9179,4.9143,4.9133,4.9143,4.9097,4.9096,4.9111,4.9117,4.9128,4.9121,4.9111,4.9111,4.9111,0,4.958,4.9548,4.9508,4.9462,4.9448,4.9427,4.9386,4.9358,4.9317,4.9298,4.9268,4.9241,4.9207,4.9199,4.9152,4.916,4.9139,4.9119,4.9118,4.9111,4.9104,4.9111,4.9118,4.9117,4.9107,4.9108,4.9108,0,4.9598,4.9543,4.9513,4.9495,4.944,4.9425,4.9401,4.9361,4.9338,4.9301,4.9286,4.9245,4.9223,4.9191,4.9153,4.9151,4.911,4.9098,4.9092,4.9093,4.9084,4.9085,4.9088,4.9071,4.9071,4.9071,4.9071,0,4.9592,4.9569,4.9521,4.9502,4.9475,4.9438,4.9412,4.9384,4.9349,4.9323,4.9291,4.9267,4.9219,4.9188,4.9158,4.9124,4.9114,4.9096,4.9088,4.9099,4.9101,4.9084,4.9084,4.907,4.907,4.907,4.9071,0,4.9606,4.9573,4.9538,4.9491,4.9478,4.946,4.9418,4.9398,4.9369,4.9337,4.9327,4.9281,4.9243,4.9203,4.9151,4.9131,4.9098,4.9087,4.9113,4.9109,4.9105,4.9106,4.9097,4.9094,4.9079,4.9079,4.908,0,4.9605,4.9587,4.9539,4.9521,4.9499,4.947,4.9448,4.9411,4.9389,4.9343,4.9328,4.9289,4.9256,4.9197,4.9157,4.9117,4.9105,4.9105,4.9099,4.9111,4.9106,4.9107,4.9106,4.9107,4.9107,4.9107,4.9107,0,4.9606,4.9591,4.9562,4.9528,4.9504,4.9474,4.9443,4.9429,4.9386,4.9362,4.9326,4.9301,4.925,4.9211,4.9167,4.9139,4.9116,4.911,4.9107,4.9117,4.9134,4.9125,4.9119,4.911,4.911,4.911,4.9109,4.9109,4.9612,4.9595,4.956,4.9529,4.9503,4.9475,4.9455,4.9425,4.9395,4.9354,4.9333,4.9297,4.9257,4.9196,4.9169,4.9139,4.9132,4.9126,4.9125,4.9124,4.9127,4.9139,4.913,4.913,4.913,4.913,4.913,0,4.9612,4.9589,4.9561,4.952,4.9496,4.948,4.9445,4.9425,4.9395,4.9361,4.9331,4.9289,4.9252,4.9211,4.9172,4.9155,4.9144,4.9146,4.9147,4.9141,4.9136,4.9143,4.9156,4.9156,4.9156,4.9156,4.9156,4.9156,4.9609,4.9581,4.9562,4.952,4.9496,4.9463,4.9445,4.9419,4.9392,4.9349,4.932,4.9295,4.9257,4.9215,4.9181,4.9169,4.9156,4.9162,4.9147,4.9143,4.9141,4.9139,4.9146,4.9159,4.9159,4.9155,4.9155,4.9155]}]]